Asheville, NC

6:30 PM EDT on September 21, 2017 (GMT -0400)
Asheville Regional

Weather History for KAVL - March, 2015

Change the Weather History Date:

Sunday, March 22, 2015

  Actual Average Record
Temperature  
Mean Temperature 58 °F 49 °F  
Max Temperature 65 °F 61 °F 86 °F (1907)
Min Temperature 50 °F 37 °F 15 °F (1965)
Degree Days  
Heating Degree Days 7 16  
Month to date heating degree days 296 418  
Since 1 July heating degree days 3605 3635  
Cooling Degree Days 0 0  
Month to date cooling degree days 0 0  
Year to date cooling degree days 0 0  
Growing Degree Days 8 (Base 50)    
Moisture  
Dew Point 40 °F    
Average Humidity 60    
Maximum Humidity 89    
Minimum Humidity 31    
Precipitation  
Precipitation 0.19 in 0.12 in 1.93 in (1903)
Month to date precipitation 1.72 2.70  
Year to date precipitation 7.56 10.13  
Snow  
Snow 0.00 in 0.00 in 9.60 in (1981)
Month to date snowfall 0.0 1.4  
Since 1 July snowfall 13.3 8.7  
Snow Depth 0.00 in    
Sea Level Pressure  
Sea Level Pressure 30.02 in    
Wind  
Wind Speed 5 mph (NW)    
Max Wind Speed 12 mph    
Max Gust Speed 15 mph    
Visibility 10 miles    
Events Rain    
T = Trace of Precipitation, MM = Missing Value Source: NWS Daily Summary

Daily Weather History Graph

Daily Weather History Graph

Search for Another Location

Airport or City:

Trip Planner

Search our weather history database for the weather conditions in past years. The results will help you decide how hot, cold, wet, or windy it might be!

Date:

Astronomy

Mar. 22, 2015 Rise Set
Actual Time 7:31 AM EDT 7:43 PM EDT
Civil Twilight 7:05 AM EDT 8:08 PM EDT
Nautical Twilight 6:36 AM EDT 8:38 PM EDT
Astronomical Twilight 6:06 AM EDT 9:08 PM EDT
Moon 9:01 AM EDT (3/22) 10:35 PM EDT (3/22)
Length of Visible Light 13h 02m
Length of Day
12h 12m
Waxing Crescent, 7% of the Moon is Illuminated
Mar 22
Waxing Crescent
Mar 27
First Quarter
Apr 4
Full
Apr 11
Last Quarter
Apr 18
New

Hourly Weather History & Observations

Time (EDT) Temp. Dew Point Humidity Pressure Visibility Wind Dir Wind Speed Gust Speed Precip Events Conditions
12:54 AM 55.9 °F 36.0 °F 47% 30.06 in 10.0 mi North 4.6 mph - N/A   Clear
1:54 AM 55.0 °F 37.0 °F 51% 30.06 in 10.0 mi NNW 9.2 mph - N/A   Clear
2:54 AM 53.1 °F 39.0 °F 59% 30.06 in 10.0 mi NNW 3.5 mph - N/A   Clear
3:54 AM 53.1 °F 39.0 °F 59% 30.05 in 10.0 mi North 4.6 mph - N/A   Clear
4:54 AM 53.1 °F 39.0 °F 59% 30.03 in 10.0 mi NNW 8.1 mph - N/A   Clear
5:54 AM 53.1 °F 37.9 °F 57% 30.04 in 10.0 mi North 5.8 mph - N/A   Clear
6:54 AM 51.1 °F 39.0 °F 63% 30.04 in 10.0 mi NNW 4.6 mph - N/A   Partly Cloudy
7:54 AM 51.1 °F 39.0 °F 63% 30.04 in 10.0 mi Calm Calm - N/A   Clear
8:54 AM 51.1 °F 39.9 °F 66% 30.06 in 10.0 mi SW 3.5 mph - N/A   Partly Cloudy
9:54 AM 54.0 °F 39.0 °F 57% 30.06 in 10.0 mi SSE 3.5 mph - N/A   Partly Cloudy
10:54 AM 55.9 °F 39.9 °F 55% 30.07 in 10.0 mi Calm Calm - N/A   Clear
11:54 AM 59.0 °F 36.0 °F 42% 30.06 in 10.0 mi Variable 3.5 mph - N/A   Clear
12:54 PM 62.1 °F 36.0 °F 38% 30.03 in 10.0 mi Variable 3.5 mph - N/A   Clear
1:54 PM 64.0 °F 34.0 °F 33% 29.99 in 10.0 mi SW 4.6 mph - N/A   Clear
2:54 PM 64.0 °F 35.1 °F 34% 29.99 in 10.0 mi South 6.9 mph - N/A   Partly Cloudy
3:54 PM 63.0 °F 33.1 °F 33% 29.96 in 10.0 mi SE 4.6 mph - N/A   Overcast
4:54 PM 62.1 °F 39.9 °F 44% 29.96 in 10.0 mi SE 6.9 mph - N/A   Overcast
5:54 PM 61.0 °F 44.1 °F 54% 29.96 in 10.0 mi SE 5.8 mph - N/A   Overcast
6:54 PM 57.9 °F 46.0 °F 65% 29.96 in 10.0 mi South 9.2 mph - 0.00 in   Overcast
7:54 PM 57.0 °F 45.0 °F 64% 29.96 in 10.0 mi South 5.8 mph - N/A   Overcast
8:54 PM 55.9 °F 46.0 °F 69% 29.99 in 10.0 mi Calm Calm - 0.00 in Rain Light Rain
9:54 PM 52.0 °F 48.9 °F 89% 30.02 in 7.0 mi NNW 3.5 mph - 0.06 in Rain Rain
10:54 PM 51.1 °F 48.9 °F 92% 30.04 in 7.0 mi Calm Calm - 0.08 in Rain Rain
11:54 PM 51.1 °F 48.9 °F 92% 30.04 in 10.0 mi NNW 5.8 mph - 0.04 in Rain Light Rain